Year,Month,Day,Hour,Minute,Value (Times are PST for barometer in hPa)
2013,04,30,15,14,1026.08
2013,04,30,15,15,1026.11
2013,04,30,15,16,1026.11
2013,04,30,15,17,1026.11
2013,04,30,15,18,1026.11
2013,04,30,15,19,1026.11
2013,04,30,15,20,1026.11
2013,04,30,15,21,1026.11
2013,04,30,15,22,1026.11
2013,04,30,15,23,1026.11
2013,04,30,15,24,1026.11
2013,04,30,15,25,1026.11
2013,04,30,15,26,1026.11
2013,04,30,15,27,1026.11
2013,04,30,15,28,1026.11
2013,04,30,15,29,1026.11
2013,04,30,15,30,1026.18
2013,04,30,15,31,1026.18
2013,04,30,15,32,1026.18
2013,04,30,15,33,1026.18
2013,04,30,15,34,1026.18
2013,04,30,15,35,1026.18
2013,04,30,15,36,1026.18
2013,04,30,15,37,1026.18
2013,04,30,15,38,1026.18
2013,04,30,15,39,1026.18
2013,04,30,15,40,1026.18
2013,04,30,15,41,1026.18
2013,04,30,15,42,1026.18
2013,04,30,15,43,1026.18
2013,04,30,15,44,1026.18
2013,04,30,15,45,1026.25
2013,04,30,15,46,1026.25
2013,04,30,15,47,1026.25
2013,04,30,15,48,1026.25
2013,04,30,15,49,1026.25
2013,04,30,15,50,1026.25
2013,04,30,15,51,1026.25
2013,04,30,15,52,1026.25
2013,04,30,15,53,1026.25
2013,04,30,15,54,1026.25
2013,04,30,15,55,1026.25
2013,04,30,15,56,1026.25
2013,04,30,15,57,1026.25
2013,04,30,15,58,1026.25
2013,04,30,15,59,1026.25
2013,04,30,16,00,1026.25
2013,04,30,16,01,1026.25
2013,04,30,16,02,1026.25
2013,04,30,16,03,1026.25
2013,04,30,16,04,1026.25
2013,04,30,16,05,1026.25
2013,04,30,16,06,1026.25
2013,04,30,16,07,1026.25
2013,04,30,16,08,1026.25
2013,04,30,16,09,1026.25
2013,04,30,16,10,1026.25
2013,04,30,16,11,1026.25
2013,04,30,16,12,1026.25
2013,04,30,16,13,1026.25
2013,04,30,16,14,1026.25
2013,04,30,16,15,1026.35
2013,04,30,16,16,1026.35
2013,04,30,16,17,1026.35
2013,04,30,16,18,1026.35
2013,04,30,16,19,1026.35
2013,04,30,16,20,1026.35
2013,04,30,16,21,1026.35
2013,04,30,16,22,1026.35
2013,04,30,16,23,1026.35
2013,04,30,16,24,1026.35
2013,04,30,16,25,1026.35
2013,04,30,16,26,1026.35
2013,04,30,16,27,1026.35
2013,04,30,16,28,1026.35
2013,04,30,16,29,1026.35
2013,04,30,16,30,1026.52
2013,04,30,16,31,1026.52
2013,04,30,16,32,1026.52
2013,04,30,16,33,1026.52
2013,04,30,16,34,1026.52
2013,04,30,16,35,1026.52
2013,04,30,16,36,1026.52
2013,04,30,16,37,1026.52
2013,04,30,16,38,1026.52
2013,04,30,16,39,1026.52
2013,04,30,16,40,1026.52
2013,04,30,16,41,1026.52
2013,04,30,16,42,1026.52
2013,04,30,16,43,1026.52
2013,04,30,16,44,1026.52
2013,04,30,16,45,1026.38
2013,04,30,16,46,1026.38
2013,04,30,16,47,1026.38
2013,04,30,16,48,1026.38
2013,04,30,16,49,1026.38
2013,04,30,16,50,1026.38
2013,04,30,16,51,1026.38
2013,04,30,16,52,1026.38
2013,04,30,16,53,1026.38
2013,04,30,16,54,1026.38
2013,04,30,16,55,1026.38
2013,04,30,16,56,1026.38
2013,04,30,16,57,1026.38
2013,04,30,16,58,1026.38
2013,04,30,16,59,1026.38
2013,04,30,17,00,1026.31
2013,04,30,17,01,1026.31
2013,04,30,17,02,1026.31
2013,04,30,17,03,1026.31
2013,04,30,17,04,1026.31
2013,04,30,17,05,1026.31
2013,04,30,17,06,1026.31
2013,04,30,17,07,1026.31
2013,04,30,17,08,1026.31
2013,04,30,17,09,1026.31
2013,04,30,17,10,1026.31
2013,04,30,17,11,1026.31
2013,04,30,17,12,1026.31
2013,04,30,17,13,1026.31
2013,04,30,17,14,1026.31
2013,04,30,17,15,1026.54
2013,04,30,17,16,1026.55
2013,04,30,17,17,1026.55
2013,04,30,17,18,1026.55
2013,04,30,17,19,1026.55
2013,04,30,17,20,1026.55
2013,04,30,17,21,1026.55
2013,04,30,17,22,1026.55
2013,04,30,17,23,1026.55
2013,04,30,17,24,1026.55
2013,04,30,17,25,1026.55
2013,04,30,17,26,1026.55
2013,04,30,17,27,1026.55
2013,04,30,17,28,1026.55
2013,04,30,17,29,1026.55
2013,04,30,17,30,1026.58
2013,04,30,17,31,1026.58
2013,04,30,17,32,1026.58
2013,04,30,17,33,1026.58
2013,04,30,17,34,1026.58
2013,04,30,17,35,1026.58
2013,04,30,17,36,1026.58
2013,04,30,17,37,1026.58
2013,04,30,17,38,1026.58
2013,04,30,17,39,1026.58
2013,04,30,17,40,1026.58
2013,04,30,17,41,1026.58
2013,04,30,17,42,1026.58
2013,04,30,17,43,1026.58
2013,04,30,17,44,1026.58
2013,04,30,17,45,1026.62
2013,04,30,17,46,1026.62
2013,04,30,17,47,1026.62
2013,04,30,17,48,1026.62
2013,04,30,17,49,1026.62
2013,04,30,17,50,1026.62
2013,04,30,17,51,1026.62
2013,04,30,17,52,1026.62
2013,04,30,17,53,1026.62
2013,04,30,17,54,1026.62
2013,04,30,17,55,1026.62
2013,04,30,17,56,1026.62
2013,04,30,17,57,1026.62
2013,04,30,17,58,1026.62
2013,04,30,17,59,1026.62
2013,04,30,18,00,1026.79
2013,04,30,18,01,1026.79
2013,04,30,18,02,1026.79
2013,04,30,18,03,1026.79
2013,04,30,18,04,1026.79
2013,04,30,18,05,1026.79
2013,04,30,18,06,1026.79
2013,04,30,18,07,1026.79
2013,04,30,18,08,1026.79
2013,04,30,18,09,1026.79
2013,04,30,18,10,1026.79
2013,04,30,18,11,1026.79
2013,04,30,18,12,1026.79
2013,04,30,18,13,1026.79
2013,04,30,18,14,1026.79
2013,04,30,18,15,1026.89
2013,04,30,18,16,1026.89
2013,04,30,18,17,1026.89
2013,04,30,18,18,1026.89
2013,04,30,18,19,1026.89
2013,04,30,18,20,1026.89
2013,04,30,18,21,1026.89
2013,04,30,18,22,1026.89
2013,04,30,18,23,1026.89
2013,04,30,18,24,1026.89
2013,04,30,18,25,1026.89
2013,04,30,18,26,1026.89
2013,04,30,18,27,1026.89
2013,04,30,18,28,1026.89
2013,04,30,18,29,1026.89
2013,04,30,18,30,1027.05
2013,04,30,18,31,1027.06
2013,04,30,18,32,1027.06
2013,04,30,18,33,1027.06
2013,04,30,18,34,1027.06
2013,04,30,18,35,1027.06
2013,04,30,18,36,1027.06
2013,04,30,18,37,1027.06
2013,04,30,18,38,1027.06
2013,04,30,18,39,1027.06
2013,04,30,18,40,1027.06
2013,04,30,18,41,1027.06
2013,04,30,18,42,1027.06
2013,04,30,18,43,1027.06
2013,04,30,18,44,1027.06
2013,04,30,18,45,1026.93
2013,04,30,18,46,1026.92
2013,04,30,18,47,1026.92
2013,04,30,18,48,1026.92
2013,04,30,18,49,1026.92
2013,04,30,18,50,1026.92
2013,04,30,18,51,1026.92
2013,04,30,18,52,1026.92
2013,04,30,18,53,1026.92
2013,04,30,18,54,1026.92
2013,04,30,18,55,1026.92
2013,04,30,18,56,1026.92
2013,04,30,18,57,1026.92
2013,04,30,18,58,1026.92
2013,04,30,18,59,1026.92
2013,04,30,19,00,1026.89
2013,04,30,19,01,1026.89
2013,04,30,19,02,1026.89
2013,04,30,19,03,1026.89
2013,04,30,19,04,1026.89
2013,04,30,19,05,1026.89
2013,04,30,19,06,1026.89
2013,04,30,19,07,1026.89
2013,04,30,19,08,1026.89
2013,04,30,19,09,1026.89
2013,04,30,19,10,1026.89
2013,04,30,19,11,1026.89
2013,04,30,19,12,1026.89
2013,04,30,19,13,1026.89
2013,04,30,19,14,1026.89
2013,04,30,19,15,1026.99
2013,04,30,19,16,1026.99
2013,04,30,19,17,1026.99
2013,04,30,19,18,1026.99
2013,04,30,19,19,1026.99
2013,04,30,19,20,1026.99
2013,04,30,19,21,1026.99
2013,04,30,19,22,1026.99
2013,04,30,19,23,1026.99
2013,04,30,19,24,1026.99
2013,04,30,19,25,1026.99
2013,04,30,19,26,1026.99
2013,04,30,19,27,1026.99
2013,04,30,19,28,1026.99
2013,04,30,19,29,1026.99
2013,04,30,19,30,1027.02
2013,04,30,19,31,1027.02
2013,04,30,19,32,1027.02
2013,04,30,19,33,1027.02
2013,04,30,19,34,1027.02
2013,04,30,19,35,1027.02
2013,04,30,19,36,1027.02
2013,04,30,19,37,1027.02
2013,04,30,19,38,1027.02
2013,04,30,19,39,1027.02
2013,04,30,19,40,1027.02
2013,04,30,19,41,1027.02
2013,04,30,19,42,1027.02
2013,04,30,19,43,1027.02
2013,04,30,19,44,1027.02
2013,04,30,19,45,1027.06
2013,04,30,19,46,1027.06
2013,04,30,19,47,1027.06
2013,04,30,19,48,1027.06
2013,04,30,19,49,1027.06
2013,04,30,19,50,1027.06
2013,04,30,19,51,1027.06
2013,04,30,19,52,1027.06
2013,04,30,19,53,1027.06
2013,04,30,19,54,1027.06
2013,04,30,19,55,1027.06
2013,04,30,19,56,1027.06
2013,04,30,19,57,1027.06
2013,04,30,19,58,1027.06
2013,04,30,19,59,1027.06
2013,04,30,20,00,1027.09
2013,04,30,20,01,1027.09
2013,04,30,20,02,1027.09
2013,04,30,20,03,1027.09
2013,04,30,20,04,1027.09
2013,04,30,20,05,1027.09
2013,04,30,20,06,1027.09
2013,04,30,20,07,1027.09
2013,04,30,20,08,1027.09
2013,04,30,20,09,1027.09
2013,04,30,20,10,1027.09
2013,04,30,20,11,1027.09
2013,04,30,20,12,1027.09
2013,04,30,20,13,1027.09
2013,04,30,20,14,1027.09
2013,04,30,20,15,1027.13
2013,04,30,20,16,1027.13
2013,04,30,20,17,1027.13
2013,04,30,20,18,1027.13
2013,04,30,20,19,1027.13
2013,04,30,20,20,1027.13
2013,04,30,20,21,1027.13
2013,04,30,20,22,1027.13
2013,04,30,20,23,1027.13
2013,04,30,20,24,1027.13
2013,04,30,20,25,1027.13
2013,04,30,20,26,1027.13
2013,04,30,20,27,1027.13
2013,04,30,20,28,1027.13
2013,04,30,20,29,1027.13
2013,04,30,20,30,1027.30
2013,04,30,20,31,1027.30
2013,04,30,20,32,1027.30
2013,04,30,20,33,1027.30
2013,04,30,20,34,1027.30
2013,04,30,20,35,1027.30
2013,04,30,20,36,1027.30
2013,04,30,20,37,1027.30
2013,04,30,20,38,1027.30
2013,04,30,20,39,1027.30
2013,04,30,20,40,1027.30
2013,04,30,20,41,1027.30
2013,04,30,20,42,1027.30
2013,04,30,20,43,1027.30
2013,04,30,20,44,1027.30
2013,04,30,20,45,1027.59
2013,04,30,20,46,1027.60
2013,04,30,20,47,1027.60
2013,04,30,20,48,1027.60
2013,04,30,20,49,1027.60
2013,04,30,20,50,1027.60
2013,04,30,20,51,1027.60
2013,04,30,20,52,1027.60
2013,04,30,20,53,1027.60
2013,04,30,20,54,1027.60
2013,04,30,20,55,1027.60
2013,04,30,20,56,1027.60
2013,04,30,20,57,1027.60
2013,04,30,20,58,1027.60
2013,04,30,20,59,1027.60
2013,04,30,21,00,1027.67
2013,04,30,21,01,1027.67
2013,04,30,21,02,1027.67
2013,04,30,21,03,1027.67
2013,04,30,21,04,1027.67
2013,04,30,21,05,1027.67
2013,04,30,21,06,1027.67
2013,04,30,21,07,1027.67
2013,04,30,21,08,1027.67
2013,04,30,21,09,1027.67
2013,04,30,21,10,1027.67
2013,04,30,21,11,1027.67
2013,04,30,21,12,1027.67
2013,04,30,21,13,1027.67
2013,04,30,21,14,1027.67
2013,04,30,21,15,1027.79
2013,04,30,21,16,1027.80
2013,04,30,21,17,1027.80
2013,04,30,21,18,1027.80
2013,04,30,21,19,1027.80
2013,04,30,21,20,1027.80
2013,04,30,21,21,1027.80
2013,04,30,21,22,1027.80
2013,04,30,21,23,1027.80
2013,04,30,21,24,1027.80
2013,04,30,21,25,1027.80
2013,04,30,21,26,1027.80
2013,04,30,21,27,1027.80
2013,04,30,21,28,1027.80
2013,04,30,21,29,1027.80
2013,04,30,21,30,1028.07
2013,04,30,21,31,1028.07
2013,04,30,21,32,1028.07
2013,04,30,21,33,1028.07
2013,04,30,21,34,1028.07
2013,04,30,21,35,1028.07
2013,04,30,21,36,1028.07
2013,04,30,21,37,1028.07
2013,04,30,21,38,1028.07
2013,04,30,21,39,1028.07
2013,04,30,21,40,1028.07
2013,04,30,21,41,1028.07
2013,04,30,21,42,1028.07
2013,04,30,21,43,1028.07
2013,04,30,21,44,1028.07
2013,04,30,21,45,1028.14
2013,04,30,21,46,1028.14
2013,04,30,21,47,1028.14
2013,04,30,21,48,1028.14
2013,04,30,21,49,1028.14
2013,04,30,21,50,1028.14
2013,04,30,21,51,1028.14
2013,04,30,21,52,1028.14
2013,04,30,21,53,1028.14
2013,04,30,21,54,1028.14
2013,04,30,21,55,1028.14
2013,04,30,21,56,1028.14
2013,04,30,21,57,1028.14
2013,04,30,21,58,1028.14
2013,04,30,21,59,1028.14
2013,04,30,22,00,1028.21
2013,04,30,22,01,1028.21
2013,04,30,22,02,1028.21
2013,04,30,22,03,1028.21
2013,04,30,22,04,1028.21
2013,04,30,22,05,1028.21
2013,04,30,22,06,1028.21
2013,04,30,22,07,1028.21
2013,04,30,22,08,1028.21
2013,04,30,22,09,1028.21
2013,04,30,22,10,1028.21
2013,04,30,22,11,1028.21
2013,04,30,22,12,1028.21
2013,04,30,22,13,1028.21
2013,04,30,22,14,1028.21
2013,04,30,22,15,1028.50
2013,04,30,22,16,1028.51
2013,04,30,22,17,1028.51
2013,04,30,22,18,1028.51
2013,04,30,22,19,1028.51
2013,04,30,22,20,1028.51
2013,04,30,22,21,1028.51
2013,04,30,22,22,1028.51
2013,04,30,22,23,1028.51
2013,04,30,22,24,1028.51
2013,04,30,22,25,1028.51
2013,04,30,22,26,1028.51
2013,04,30,22,27,1028.51
2013,04,30,22,28,1028.51
2013,04,30,22,29,1028.51
2013,04,30,22,30,1028.62
2013,04,30,22,31,1028.62
2013,04,30,22,32,1028.62
2013,04,30,22,33,1028.62
2013,04,30,22,34,1028.62
2013,04,30,22,35,1028.62
2013,04,30,22,36,1028.62
2013,04,30,22,37,1028.62
2013,04,30,22,38,1028.62
2013,04,30,22,39,1028.62
2013,04,30,22,40,1028.62
2013,04,30,22,41,1028.62
2013,04,30,22,42,1028.62
2013,04,30,22,43,1028.62
2013,04,30,22,44,1028.62
2013,04,30,22,45,1028.68
2013,04,30,22,46,1028.68
2013,04,30,22,47,1028.68
2013,04,30,22,48,1028.68
2013,04,30,22,49,1028.68
2013,04,30,22,50,1028.68
2013,04,30,22,51,1028.68
2013,04,30,22,52,1028.68
2013,04,30,22,53,1028.68
2013,04,30,22,54,1028.68
2013,04,30,22,55,1028.68
2013,04,30,22,56,1028.68
2013,04,30,22,57,1028.68
2013,04,30,22,58,1028.68
2013,04,30,22,59,1028.68
2013,04,30,23,00,1028.68
2013,04,30,23,01,1028.68
2013,04,30,23,02,1028.68
2013,04,30,23,03,1028.68
2013,04,30,23,04,1028.68
2013,04,30,23,05,1028.68
2013,04,30,23,06,1028.68
2013,04,30,23,07,1028.68
2013,04,30,23,08,1028.68
2013,04,30,23,09,1028.68
2013,04,30,23,10,1028.68
2013,04,30,23,11,1028.68
2013,04,30,23,12,1028.68
2013,04,30,23,13,1028.68
2013,04,30,23,14,1028.68
2013,04,30,23,15,1028.72
2013,04,30,23,16,1028.72
2013,04,30,23,17,1028.72
2013,04,30,23,18,1028.72
2013,04,30,23,19,1028.72
2013,04,30,23,20,1028.72
2013,04,30,23,21,1028.72
2013,04,30,23,22,1028.72
2013,04,30,23,23,1028.72
2013,04,30,23,24,1028.72
2013,04,30,23,25,1028.72
2013,04,30,23,26,1028.72
2013,04,30,23,27,1028.72
2013,04,30,23,28,1028.72
2013,04,30,23,29,1028.72
2013,04,30,23,30,1028.79
2013,04,30,23,31,1028.79
2013,04,30,23,32,1028.79
2013,04,30,23,33,1028.79
2013,04,30,23,34,1028.79
2013,04,30,23,35,1028.79
2013,04,30,23,36,1028.79
2013,04,30,23,37,1028.79
2013,04,30,23,38,1028.79
2013,04,30,23,39,1028.79
2013,04,30,23,40,1028.79
2013,04,30,23,41,1028.79
2013,04,30,23,42,1028.79
2013,04,30,23,43,1028.79
2013,04,30,23,44,1028.79
2013,04,30,23,45,1029.01
2013,04,30,23,46,1029.02
2013,04,30,23,47,1029.02
2013,04,30,23,48,1029.02
2013,04,30,23,49,1029.02
2013,04,30,23,50,1029.02
2013,04,30,23,51,1029.02
2013,04,30,23,52,1029.02
2013,04,30,23,53,1029.02
2013,04,30,23,54,1029.02
2013,04,30,23,55,1029.02
2013,04,30,23,56,1029.02
2013,04,30,23,57,1029.02
2013,04,30,23,58,1029.02
2013,04,30,23,59,1029.02
